[[{"header":{"parameterUnit":"m.s-1","parameterCategory":1,"la1":30.2991,"la2":30.254,"lo1":-89.0895,"lo2":-89.0444,"dy":0.0017,"dx":0.0017,"nx":28,"ny":28,"refTime":"2025-09-01T21:00:00:Z","depth":0,"parameterNumber":2,"parameterNumberName":"U-component_of_WINDS"},"data":[0,0,0,0,0,0,0,0,0,0,0,0,0,0,0,0,0,0,0,0,0,0,0,0,0,0,0,0,0,0,0,0,0,0,0,0,0,0,0,0,0,0,0,0,0,0,0,0,0,0,0,0,0,0,0,0,0,0,-2.6565,-2.6564,0,-2.6518,-2.6517,-2.6516,-2.6416,-2.6414,-2.6412,-2.641,-2.6364,-2.6365,-2.6366,0,0,0,0,0,0,0,0,0,0,0,0,0,-2.6571,-2.6572,-2.6565,-2.6564,-2.6563,-2.6518,-2.6517,-2.6516,-2.6416,-2.6414,-2.6411,-2.6409,-2.6364,-2.6365,-2.6366,0,0,0,0,0,0,0,0,0,0,0,0,0,-2.6551,-2.6572,-2.6565,-2.6508,-2.6502,-2.6518,-2.6517,-2.6516,-2.6417,-2.6414,-2.6411,-2.6408,-2.6364,-2.6365,-2.6366,-2.6433,0,0,-2.6369,-2.6369,0,0,0,0,0,0,0,0,-2.6552,-2.6551,-2.6517,-2.6512,-2.6506,-2.6469,-2.6502,-2.6489,-2.6417,-2.6449,-2.641,-2.6406,-2.6402,-2.64,-2.6397,-2.6431,-2.6429,-2.6369,-2.637,-2.637,-2.637,0,0,0,0,0,0,0,-2.6554,-2.6552,-2.6546,-2.6516,-2.651,-2.6486,-2.648,-2.6499,-2.6443,-2.6446,-2.6439,-2.6435,-2.6398,-2.6397,-2.6396,-2.6429,-2.6369,-2.637,-2.637,-2.6371,-2.6518,-2.6521,0,0,0,0,0,0,-2.6563,-2.6554,-2.6547,-2.6545,-2.6522,-2.6488,-2.6481,-2.6484,-2.6443,-2.6434,-2.6437,-2.643,-2.6396,-2.6395,-2.6394,-2.6471,-2.637,-2.6371,-2.6372,-2.6514,-2.6518,-2.6522,0,0,0,0,0,0,-2.6563,-2.6563,-2.6549,-2.6547,-2.6544,-2.6491,-2.6496,-2.6485,-2.6483,-2.6436,-2.6426,-2.6446,-2.6394,-2.6392,-2.6424,-2.6468,-2.6371,-2.6372,-2.651,-2.6516,-2.652,-2.6626,0,0,0,0,0,0,-2.6564,-2.6564,-2.6588,-2.6549,-2.6544,-2.658,-2.6498,-2.6486,-2.6485,-2.6475,-2.6441,-2.6433,-2.6391,-2.6424,-2.6426,-2.6468,-2.6373,-2.6506,-2.6513,-2.6519,-2.6619,-2.6634,-2.6648,0,0,0,0,0,-2.6565,-2.662,-2.659,-2.659,-2.6573,-2.6583,-2.658,-2.6531,-2.6489,-2.6513,-2.6483,-2.6434,-2.6463,-2.6428,-2.6429,-2.6472,-2.6503,-2.6511,-2.6518,-2.6612,-2.6631,-2.6647,0,0,0,0,0,0,-2.6667,-2.6614,-2.658,-2.6624,-2.6609,-2.6566,-2.6595,-2.6552,-2.6549,-2.654,-2.648,-2.6473,-2.6514,-2.6496,-2.6458,-2.6537,-2.6475,-2.6484,-2.6547,-2.6564,-2.6578,-2.6582,-2.6374,0,0,0,0,0,-2.6694,-2.6706,-2.6659,-2.6703,-2.6697,-2.6648,-2.665,-2.6613,-2.6595,-2.6589,-2.6561,-2.6546,-2.6552,-2.6557,-2.656,-2.6616,-2.6608,-2.6647,-2.6661,-2.6673,-2.6681,-2.6711,-2.6728,-2.6546,-2.6546,-2.6546,0,0,-2.6751,-2.6724,-2.6735,-2.6723,-2.6706,-2.6721,-2.6643,-2.6661,-2.6671,-2.6591,-2.662,-2.66,-2.658,-2.6624,-2.6643,-2.6611,-2.6729,-2.6683,-2.6693,-2.6693,-2.672,-2.6737,-2.6753,-2.6551,-2.655,-2.6549,0,0,-2.6863,-2.6843,-2.6877,-2.6863,-2.684,-2.6807,-2.6816,-2.678,-2.6763,-2.6791,-2.6732,-2.6744,-2.6755,-2.6743,-2.6739,-2.6849,-2.6803,-2.6851,-2.6927,-2.6957,-2.6971,-2.6983,-2.7023,-2.7038,-2.6859,-2.686,-2.686,0,-2.6937,-2.6955,-2.6901,-2.6923,-2.692,-2.6849,-2.6884,-2.6873,-2.6852,-2.6853,-2.6817,-2.6831,-2.6812,-2.6854,-2.6881,-2.6879,-2.6888,-2.6855,-2.6973,-2.6985,-2.6996,-2.7033,-2.7048,-2.6865,-2.6865,-2.6864,-2.6864,0,-2.7048,-2.7062,-2.7093,-2.7074,-2.7075,-2.7104,-2.7055,-2.7063,-2.7027,-2.6999,-2.7029,-2.7004,-2.7001,-2.7009,-2.6974,-2.7046,-2.7027,-2.6984,-2.6921,-2.702,-2.7054,-2.7068,-2.6874,-2.6872,-2.687,-2.6869,0,0,-2.7221,-2.7173,-2.7185,-2.7177,-2.7147,-2.7157,-2.7184,-2.718,-2.7188,-2.7177,-2.7199,-2.7211,-2.717,-2.7166,-2.7129,-2.7155,-2.7245,-2.7108,-2.7107,-2.7135,-2.7325,-2.7359,-2.7376,-2.7215,-2.7218,-2.722,-2.7327,0,-2.7325,-2.7367,-2.732,-2.7372,-2.7385,-2.7318,-2.7342,-2.7327,-2.7301,-2.731,-2.7282,-2.7292,-2.7237,-2.7234,-2.7257,-2.723,-2.7283,-2.7221,-2.7236,-2.7237,-2.7243,-2.7394,-2.7428,-2.7531,-2.734,-2.7342,-2.7344,0,-2.7452,-2.7447,-2.75,-2.7468,-2.7472,-2.7494,-2.7488,-2.7496,-2.7479,-2.7459,-2.7455,-2.7411,-2.7436,-2.7376,-2.7411,-2.737,-2.7374,-2.7361,-2.7364,-2.7363,-2.7297,-2.7398,-2.7562,-2.7578,-2.7364,-2.7363,-2.7361,0,-2.7574,-2.758,-2.7613,-2.7608,-2.7571,-2.7588,-2.7574,-2.7553,-2.7555,-2.755,-2.7551,-2.755,-2.755,-2.7551,-2.7509,-2.7468,-2.755,-2.7485,-2.7535,-2.7536,-2.7554,-2.7554,-2.7722,-2.7557,-2.7557,-2.7557,-2.7556,0,-2.7696,-2.7731,-2.7667,-2.7688,-2.7726,-2.7673,-2.7713,-2.7692,-2.7674,-2.769,-2.7633,-2.765,-2.7593,-2.7604,-2.7572,-2.7607,-2.7607,-2.7592,-2.7583,-2.7597,-2.7599,-2.7599,-2.7591,-2.7561,-2.756,-2.7559,-2.7558,0,-2.7837,-2.7796,-2.7828,-2.7791,-2.7783,-2.7813,-2.7781,-2.78,-2.7771,-2.7793,-2.7795,-2.7751,-2.7761,-2.772,-2.7723,-2.7701,-2.7753,-2.7732,-2.7759,-2.7753,-2.7805,-2.7801,-2.7978,-2.7999,-2.7821,-2.7823,-2.7825,0,-2.7917,-2.7943,-2.7909,-2.7916,-2.7904,-2.7916,-2.7917,-2.7867,-2.7871,-2.7854,-2.7875,-2.788,-2.7882,-2.7902,-2.7871,-2.7874,-2.7853,-2.7915,-2.7853,-2.7867,-2.7855,-2.7854,-2.7857,-2.7928,-2.7931,-2.7932,-2.7934,0,-2.8064,-2.8043,-2.8047,-2.8045,-2.8048,-2.8044,-2.8036,-2.8045,-2.7991,-2.7999,-2.8009,-2.801,-2.8014,-2.8021,-2.8018,-2.8004,-2.7961,-2.7954,-2.7965,-2.798,-2.7995,-2.7988,-2.7794,-2.795,-2.7948,-2.7947,-2.7946,-2.7945,-2.8178,-2.8198,-2.8178,-2.8185,-2.8174,-2.8168,-2.8184,-2.8158,-2.8165,-2.8163,-2.8134,-2.815,-2.8134,-2.8125,-2.8116,-2.8129,-2.81,-2.8117,-2.8121,-2.8126,-2.8135,-2.7993,-2.8128,-2.8128,-2.8127,-2.8127,-2.8126,0,-2.8322,-2.8306,-2.8313,-2.8304,-2.831,-2.8268,-2.8258,-2.8266,-2.8281,-2.8269,-2.8272,-2.8285,-2.8292,-2.8262,-2.8265,-2.8282,-2.8262,-2.8284,-2.8282,-2.828,-2.816,-2.815,-2.83,-2.83,-2.83,-2.83,-2.83,-2.83,-2.8398,-2.843,-2.8407,-2.8434,-2.8418,-2.8433,-2.8431,-2.8426,-2.8417,-2.8433,-2.8438,-2.8419,-2.84,-2.8402,-2.8407,-2.8399,-2.8403,-2.8432,-2.8417,-2.8305,-2.8289,-2.8272,-2.8262,-2.8434,-2.8434,-2.8536,-2.8537,-2.8537]},{"header":{"parameterUnit":"m.s-1","parameterCategory":1,"la1":30.2991,"la2":30.254,"lo1":-89.0895,"lo2":-89.0444,"dy":0.0017,"dx":0.0017,"nx":28,"ny":28,"refTime":"2025-09-01T21:00:00:Z","depth":0,"parameterNumber":3,"parameterNumberName":"V-component_of_WINDS"},"data":[0,0,0,0,0,0,0,0,0,0,0,0,0,0,0,0,0,0,0,0,0,0,0,0,0,0,0,0,0,0,0,0,0,0,0,0,0,0,0,0,0,0,0,0,0,0,0,0,0,0,0,0,0,0,0,0,0,0,1.7423,1.7423,0,1.7415,1.7415,1.7415,1.7452,1.7453,1.7454,1.7456,1.7442,1.744,1.7439,0,0,0,0,0,0,0,0,0,0,0,0,0,1.7466,1.7465,1.7423,1.7423,1.7423,1.7415,1.7415,1.7414,1.7452,1.7453,1.7455,1.7456,1.7442,1.744,1.7439,0,0,0,0,0,0,0,0,0,0,0,0,0,1.7452,1.7465,1.7423,1.7441,1.7442,1.7415,1.7415,1.7414,1.7452,1.7453,1.7455,1.7457,1.7443,1.744,1.7438,1.7392,0,0,1.7432,1.7431,0,0,0,0,0,0,0,0,1.7452,1.745,1.7438,1.7439,1.7441,1.7436,1.7425,1.7407,1.7451,1.7448,1.7456,1.7457,1.7438,1.7436,1.7431,1.7391,1.7391,1.7432,1.743,1.743,1.7429,0,0,0,0,0,0,0,1.7453,1.745,1.742,1.7438,1.744,1.7447,1.7447,1.7422,1.7433,1.7448,1.7451,1.745,1.7439,1.7433,1.7431,1.739,1.7432,1.743,1.7429,1.7428,1.731,1.7308,0,0,0,0,0,0,1.7453,1.7451,1.742,1.7419,1.7451,1.7445,1.7445,1.7436,1.7434,1.7435,1.7448,1.7452,1.7436,1.7433,1.7431,1.7374,1.743,1.7428,1.7426,1.7312,1.731,1.7308,0,0,0,0,0,0,1.7454,1.745,1.742,1.7436,1.7433,1.7443,1.7432,1.7435,1.7429,1.7434,1.7436,1.744,1.7437,1.7434,1.7401,1.7374,1.7427,1.7425,1.7314,1.7311,1.7309,1.7262,0,0,0,0,0,0,1.7455,1.745,1.7433,1.7435,1.7432,1.7392,1.7431,1.7434,1.7426,1.743,1.7427,1.7428,1.7438,1.7404,1.7399,1.7372,1.7423,1.7317,1.7313,1.731,1.7266,1.7258,1.7251,0,0,0,0,0,1.7456,1.742,1.7432,1.7428,1.7412,1.7391,1.7388,1.7402,1.7424,1.7406,1.7409,1.7428,1.7379,1.7401,1.7395,1.7367,1.7318,1.7314,1.731,1.7269,1.726,1.7251,0,0,0,0,0,0,1.7412,1.742,1.7434,1.7398,1.7393,1.7397,1.7375,1.7392,1.738,1.7384,1.7401,1.7399,1.7363,1.7363,1.7387,1.7321,1.7352,1.7346,1.7323,1.7314,1.7306,1.7306,1.7421,0,0,0,0,0,1.7398,1.7382,1.739,1.7357,1.7354,1.7365,1.7356,1.7368,1.7363,1.7361,1.7362,1.7355,1.7338,1.7326,1.7311,1.7267,1.7265,1.7245,1.7238,1.7232,1.7226,1.72,1.7191,1.7294,1.7294,1.7294,0,0,1.7369,1.7372,1.736,1.7348,1.7346,1.7327,1.7363,1.7342,1.7327,1.7357,1.7326,1.7327,1.7321,1.7282,1.7265,1.728,1.7197,1.7227,1.7222,1.7219,1.7195,1.7185,1.7176,1.7291,1.7292,1.7292,0,0,1.7306,1.7307,1.7279,1.7277,1.7274,1.7282,1.7275,1.7277,1.7278,1.7249,1.727,1.7253,1.7224,1.7218,1.7211,1.7146,1.7161,1.7141,1.7101,1.7076,1.7067,1.706,1.7034,1.7025,1.7135,1.7135,1.7135,0,1.7269,1.7243,1.7262,1.7239,1.7232,1.7261,1.7231,1.7228,1.7219,1.7212,1.7231,1.7194,1.7192,1.7151,1.7135,1.713,1.7121,1.7139,1.7068,1.706,1.7054,1.7029,1.702,1.7132,1.7133,1.7133,1.7133,0,1.7197,1.7178,1.7156,1.7148,1.7139,1.7113,1.7126,1.7114,1.7127,1.7132,1.71,1.7099,1.7084,1.7076,1.7087,1.7036,1.7045,1.7065,1.7095,1.7041,1.7018,1.7009,1.7128,1.7129,1.713,1.7131,0,0,1.7103,1.7108,1.7098,1.7095,1.7095,1.7079,1.7054,1.7041,1.7029,1.7023,1.7,1.6975,1.6994,1.6986,1.6997,1.6976,1.6921,1.6998,1.6998,1.6981,1.6862,1.6844,1.6833,1.6933,1.6932,1.693,1.6861,0,1.7038,1.6996,1.7013,1.6969,1.6951,1.6978,1.6956,1.6952,1.6957,1.6941,1.6946,1.6927,1.6954,1.6949,1.693,1.6932,1.6897,1.6938,1.6909,1.6908,1.6907,1.6822,1.6803,1.6738,1.6853,1.6851,1.685,0,1.6957,1.6949,1.6903,1.6905,1.6898,1.6878,1.6866,1.6852,1.6847,1.6852,1.6844,1.686,1.6833,1.6866,1.6828,1.6855,1.6845,1.6845,1.6842,1.6837,1.6873,1.6811,1.6718,1.6707,1.6837,1.6838,1.6839,0,1.689,1.6867,1.6837,1.6833,1.6836,1.682,1.682,1.6818,1.6809,1.6798,1.6792,1.6778,1.677,1.6758,1.6769,1.6792,1.6728,1.6762,1.6728,1.6728,1.671,1.6711,1.6611,1.6709,1.6709,1.671,1.671,0,1.6814,1.6784,1.6806,1.6787,1.6753,1.6773,1.6739,1.6742,1.674,1.672,1.6744,1.6725,1.6742,1.6724,1.6732,1.6698,1.6695,1.6696,1.6697,1.6691,1.6691,1.6682,1.6686,1.6707,1.6708,1.6708,1.6709,0,1.6731,1.6746,1.6713,1.6719,1.672,1.6695,1.6698,1.668,1.6687,1.6662,1.6657,1.6667,1.6647,1.6658,1.6636,1.6642,1.6597,1.6606,1.6598,1.6599,1.6564,1.6566,1.6452,1.6437,1.6548,1.6547,1.6546,0,1.6681,1.6659,1.6662,1.6652,1.6651,1.6633,1.6624,1.6643,1.6632,1.6625,1.6607,1.6589,1.6575,1.6541,1.6545,1.6529,1.6536,1.6498,1.6534,1.6528,1.6532,1.6532,1.6528,1.6489,1.6488,1.6487,1.6486,0,1.6588,1.6596,1.6583,1.6572,1.6561,1.6553,1.6546,1.6536,1.6554,1.6541,1.6521,1.6511,1.649,1.6471,1.6457,1.6455,1.6472,1.6475,1.6466,1.6458,1.6453,1.6452,1.6575,1.6477,1.6478,1.6478,1.6479,1.6479,1.6518,1.6499,1.6498,1.6482,1.648,1.6474,1.6456,1.6462,1.6447,1.6432,1.6444,1.642,1.6415,1.6398,1.6394,1.6374,1.6389,1.6376,1.6373,1.6368,1.6362,1.6459,1.6372,1.6372,1.6373,1.6373,1.6373,0,1.6424,1.6425,1.6411,1.6402,1.6389,1.641,1.6404,1.6391,1.637,1.6366,1.6353,1.6329,1.6311,1.6315,1.6298,1.6281,1.6288,1.6275,1.6275,1.6274,1.6351,1.6359,1.627,1.627,1.627,1.627,1.627,1.627,1.6373,1.6341,1.635,1.6316,1.6318,1.6296,1.629,1.6284,1.628,1.6253,1.6239,1.6243,1.6241,1.6224,1.6207,1.6209,1.62,1.6183,1.6187,1.6258,1.6268,1.6278,1.6286,1.6182,1.6182,1.6111,1.611,1.611]}]]